Wind_Speed
41 43 44 44 45 45 44 45 45 46 47 48 49 50 50 51 53 53 52 53 53 55 57 60 62 63 63 64 64 64 64 62 61 59 51 42 38 38 41 43 45 46 46 46 46 46 46 45 46 46 47 49 50 51 52 53 55 56 58 59 60 61 62 64 65 66 68 70 70 71 72 73 74 75 75 75 75 75 76 75 75 75 75 74 73 73
43 43 45 46 46 46 46 46 47 48 49 49 50 51 52 52 53 54 54 54 54 55 57 60 63 65 64 63 63 63 61 60 59 52 41 37 39 41 43 45 47 47 47 47 46 46 45 45 47 48 49 51 52 53 54 56 58 59 61 62 64 65 67 68 69 70 72 74 75 75 76 77 77 78 78 78 77 77 77 77 76 77 76 75 74 74
44 45 47 48 49 49 48 48 48 49 50 51 51 52 53 54 54 55 56 56 55 55 57 60 63 66 65 63 62 61 59 57 53 44 36 37 41 43 45 47 48 48 49 48 46 45 45 47 49 51 52 54 55 57 58 60 61 62 64 66 67 69 71 72 73 74 75 77 79 79 80 81 81 81 82 81 80 79 78 78 77 78 77 77 76 75
46 48 50 52 52 51 50 49 49 50 51 52 52 53 54 55 54 55 56 57 58 57 57 58 61 65 66 63 61 59 57 52 45 38 37 40 43 45 46 47 48 49 49 48 46 45 46 49 52 54 55 57 59 60 62 64 65 66 68 70 71 73 75 76 77 78 79 81 83 84 84 85 85 85 85 84 83 82 80 79 79 79 79 79 78 76
50 52 54 55 55 52 50 49 50 51 53 54 54 55 55 56 56 55 56 57 59 59 59 59 59 64 66 62 58 56 51 44 40 38 39 42 45 47 48 49 49 50 49 48 46 47 50 52 55 57 59 60 62 64 65 67 68 70 72 74 75 77 79 80 81 82 83 85 86 87 88 89 89 89 89 88 86 85 83 82 82 81 81 80 80 78
53 55 57 57 55 51 49 50 51 52 54 55 56 56 56 56 57 57 57 57 58 59 60 60 59 61 65 60 54 49 42 39 40 40 42 44 45 47 49 50 51 50 48 46 47 50 53 55 58 60 62 63 64 66 68 70 71 73 75 77 79 80 82 84 84 85 86 88 89 90 92 92 93 93 93 92 90 88 87 86 85 84 82 82 81 80
55 58 59 56 51 49 50 51 52 54 54 56 57 57 57 57 57 57 58 57 57 58 59 61 60 60 63 58 47 40 37 39 43 43 44 46 46 48 50 51 52 50 48 47 48 52 55 58 60 61 64 65 66 67 69 71 73 75 77 79 81 83 85 87 88 89 90 91 93 94 95 95 96 96 96 95 93 92 90 89 88 86 84 83 82 81
58 59 56 51 49 50 51 53 54 55 55 56 57 58 58 58 58 57 58 58 57 58 58 60 60 60 60 52 40 36 38 41 45 46 46 47 48 50 51 52 52 51 49 49 51 55 58 60 61 62 64 66 67 68 70 73 74 76 78 80 83 85 87 89 91 93 94 95 96 97 98 98 99 99 98 97 96 95 93 92 91 89 86 84 83 82
58 54 50 49 51 52 53 54 56 56 56 57 57 58 57 57 57 57 57 57 57 57 57 58 61 60 53 44 36 37 42 44 47 49 48 49 50 51 53 52 52 51 50 51 53 57 59 61 62 63 66 67 69 70 72 74 76 77 80 82 84 87 89 91 94 96 98 99 99 101 101 101 102 102 101 100 99 97 96 95 94 92 89 86 84 82
52 49 49 51 52 54 55 56 57 57 57 57 57 57 57 56 57 56 57 57 55 56 56 58 62 56 44 39 38 40 43 46 49 51 51 51 52 53 53 52 51 51 51 53 56 59 60 62 64 65 68 70 72 73 74 76 78 80 82 85 87 90 92 94 96 98 100 101 102 103 104 104 105 104 104 103 102 100 99 97 96 94 91 88 85 83
48 50 52 53 54 56 57 57 58 58 58 58 57 56 56 56 56 55 56 55 53 53 55 57 61 51 39 39 40 40 43 46 49 53 54 54 54 54 54 53 53 54 55 56 58 61 63 66 68 70 72 74 76 78 79 80 82 84 86 88 91 94 96 97 99 101 102 104 105 106 106 107 107 107 106 105 104 103 101 99 97 95 92 90 87 84
50 52 53 55 57 57 58 58 58 58 58 58 57 57 56 55 54 53 53 51 50 51 53 54 55 49 43 42 41 40 43 45 49 54 56 55 55 55 55 56 57 58 59 60 62 65 68 70 73 75 77 79 81 82 83 85 86 88 90 92 95 97 99 101 102 104 105 107 108 109 109 110 109 109 109 107 106 105 102 100 98 95 92 90 88 85
52 54 56 57 58 59 59 59 59 58 58 58 58 58 57 55 52 50 48 47 47 47 48 49 51 50 48 46 43 43 44 45 49 54 57 56 54 55 57 59 60 62 63 64 67 70 72 74 77 79 81 82 84 86 87 89 90 92 94 96 98 101 103 104 105 107 108 109 110 111 112 111 111 111 110 109 108 106 103 101 98 95 92 90 89 86
52 55 58 59 59 60 60 59 59 58 58 57 58 58 58 56 51 45 44 44 43 41 42 45 50 53 51 48 46 45 46 47 50 54 56 56 56 57 60 61 63 65 67 68 71 73 75 77 79 81 83 85 87 89 90 92 94 96 98 100 102 104 106 108 109 110 111 112 113 113 114 113 112 112 111 110 109 107 104 101 98 95 92 90 89 86
54 56 58 59 60 60 60 60 59 59 57 57 58 58 57 56 50 45 42 39 35 34 38 45 52 56 55 51 47 47 47 48 50 53 55 57 59 61 63 65 67 69 71 72 75 77 78 80 81 83 85 88 90 92 94 96 98 100 102 104 105 108 110 111 112 113 114 114 115 115 115 115 114 113 112 110 108 106 103 100 97 94 92 89 87 85
56 57 58 59 59 60 60 59 59 59 58 57 57 57 55 52 49 45 40 34 31 32 38 45 52 58 61 58 52 49 50 51 52 55 57 60 63 65 67 69 72 73 75 76 77 79 80 82 84 86 88 90 92 95 97 99 101 103 105 107 109 111 113 115 116 116 117 117 117 117 117 117 115 114 112 109 107 104 101 99 96 93 90 88 86 83
58 57 58 58 59 59 59 58 59 59 58 57 56 55 51 48 46 42 34 30 32 34 37 43 50 57 63 63 58 55 54 55 57 59 62 65 67 69 72 74 75 77 77 78 80 80 82 84 86 88 91 93 95 97 100 102 105 107 109 111 113 115 117 118 119 119 119 119 119 119 119 118 116 113 110 107 105 102 99 97 95 92 89 87 84 81
59 57 57 59 59 59 58 58 59 59 59 57 55 52 48 44 41 36 30 31 35 36 36 41 47 55 62 65 62 59 59 60 61 64 66 70 72 73 75 77 78 79 79 80 82 83 85 86 88 91 93 96 99 101 103 105 108 111 114 116 118 119 120 121 122 122 122 122 121 121 120 118 115 111 108 105 102 99 97 96 93 91 88 85 82 78
60 57 56 58 59 58 58 58 58 59 58 56 53 50 46 40 35 32 33 35 37 37 36 38 44 54 63 64 61 61 62 63 65 67 70 72 75 76 77 78 80 81 82 83 84 85 87 89 91 94 96 99 102 104 107 109 112 115 117 120 122 123 124 125 125 125 125 125 123 122 119 116 112 109 106 103 100 98 96 94 92 89 86 84 80 76
59 57 55 57 59 58 58 59 58 57 55 53 51 48 42 36 32 33 37 39 39 39 39 37 40 52 63 63 61 63 64 65 67 69 71 74 76 77 78 80 81 82 84 84 86 88 90 92 95 97 100 103 106 108 111 113 115 118 120 122 124 126 127 128 129 129 128 126 124 121 117 114 110 107 104 102 99 97 95 93 90 87 84 81 78 73
59 56 55 56 58 58 58 58 56 54 52 50 47 43 37 34 34 36 39 42 43 42 43 39 39 51 63 63 63 65 65 67 69 70 73 76 78 79 81 82 84 85 86 87 89 91 94 96 99 102 104 107 110 113 115 118 120 121 123 125 126 128 129 130 130 130 128 125 122 118 115 111 108 105 103 100 98 96 94 91 88 85 82 78 74 70
57 56 55 56 57 58 58 56 53 51 49 47 42 37 35 36 38 39 39 43 45 45 47 44 42 51 63 65 65 67 68 70 73 74 75 78 80 82 83 85 88 89 90 92 94 96 98 101 103 106 108 111 114 117 120 122 123 124 126 127 128 129 130 130 129 128 126 123 119 116 113 110 107 104 101 98 96 94 91 89 85 82 79 75 71 69
56 55 54 55 56 56 55 53 50 48 47 43 38 36 37 39 41 42 42 43 45 48 51 50 48 53 62 66 68 69 70 73 76 77 78 81 83 86 87 89 91 93 94 96 99 101 103 105 107 110 112 115 118 121 123 125 127 128 129 129 129 129 128 128 126 124 122 120 117 115 111 108 104 101 98 96 93 91 89 86 83 80 77 73 70 68
56 54 53 51 51 52 52 50 48 46 42 39 38 38 40 42 44 45 46 47 48 51 55 55 54 57 63 69 71 71 73 76 79 81 83 85 87 89 91 93 94 95 97 99 102 104 107 109 112 114 117 119 122 124 126 128 129 130 130 130 129 127 125 123 121 120 118 116 114 112 109 106 102 97 95 93 91 88 85 83 81 78 75 71 69 67
54 53 50 46 45 47 48 48 46 43 40 39 40 42 43 45 47 48 50 52 53 54 59 61 60 61 68 73 74 75 78 80 83 86 88 90 91 92 93 95 96 98 100 102 104 107 110 113 116 119 121 124 126 129 131 131 131 130 129 129 127 124 120 117 115 113 112 111 109 108 106 104 100 95 92 90 87 85 83 81 78 76 73 70 68 67
49 49 47 45 44 44 42 41 39 39 41 42 43 44 45 47 50 52 54 57 57 57 61 66 66 65 71 76 77 79 82 83 86 88 91 92 94 95 96 97 98 101 103 105 108 111 114 116 120 123 126 128 131 132 133 133 131 130 128 126 124 120 117 113 110 107 106 105 105 104 103 101 98 94 89 86 84 82 81 79 77 74 72 69 68 66
45 46 46 45 44 42 38 36 36 38 41 43 44 45 48 50 53 56 59 61 62 61 62 69 72 70 74 79 80 83 85 86 88 90 92 94 96 97 98 99 101 104 107 110 112 115 118 121 124 127 130 132 133 133 133 132 131 129 126 123 119 116 113 110 106 102 100 99 98 98 98 97 96 93 89 85 82 81 79 77 75 73 71 68 66 64
43 44 44 42 42 40 37 38 39 40 42 44 46 48 51 55 57 60 63 65 67 67 66 70 76 77 78 81 83 87 89 89 91 93 95 96 97 98 100 102 104 107 110 114 117 120 123 126 129 131 133 134 134 134 132 129 127 125 122 119 116 113 110 106 100 96 94 94 95 94 94 93 93 91 88 84 81 80 78 76 74 72 70 67 65 63
40 40 39 38 41 41 39 41 42 43 45 46 49 52 55 58 61 64 67 69 71 72 72 73 77 81 84 85 87 90 93 94 95 96 97 99 99 101 103 105 108 111 114 118 121 124 128 130 133 134 135 136 135 133 129 124 121 118 116 114 112 108 104 99 94 91 90 92 93 92 91 90 89 88 86 83 80 78 77 75 73 71 69 66 64 63
36 35 35 35 40 43 43 43 45 47 49 50 53 57 59 62 64 67 70 73 75 76 78 79 81 84 88 89 91 93 96 97 98 98 99 101 103 104 107 109 112 115 118 122 125 128 131 133 135 136 137 136 134 130 124 119 115 112 110 107 104 99 95 92 89 88 88 90 91 90 88 87 86 85 83 81 78 76 75 74 72 69 67 65 62 62
31 32 34 35 41 46 46 47 49 51 53 55 57 60 63 65 67 70 73 76 78 79 82 84 86 87 90 92 93 96 98 100 101 101 102 104 106 109 111 113 116 119 122 125 128 131 133 135 136 137 136 134 131 126 119 115 111 108 104 100 96 92 91 89 88 87 87 87 87 85 83 82 80 79 78 76 74 73 72 71 69 67 65 62 61 61
31 32 35 37 41 47 50 51 53 55 56 58 60 63 66 67 70 73 77 81 82 83 84 88 90 91 92 93 94 96 99 101 103 105 106 108 110 112 115 118 121 123 126 129 132 134 135 137 137 136 133 130 125 120 115 112 108 103 99 95 92 91 90 88 86 86 85 84 83 80 78 76 74 73 72 71 70 69 69 68 66 64 61 60 60 59
33 35 38 39 42 47 51 54 56 59 59 60 63 66 69 70 73 76 81 86 88 88 88 90 92 94 95 95 96 96 97 100 104 107 109 112 114 117 120 123 125 128 131 133 135 137 138 138 138 135 130 126 122 118 114 110 105 100 96 92 90 90 90 87 84 83 82 81 79 76 74 71 69 68 67 67 66 66 65 64 62 60 58 58 58 57
37 38 40 42 44 48 53 56 59 62 63 64 66 70 72 74 76 78 83 88 91 91 93 95 96 97 98 98 99 98 98 101 105 109 113 116 118 121 124 127 130 132 134 136 137 138 139 139 137 133 128 124 121 118 113 108 104 99 95 93 90 90 90 86 81 79 78 77 76 74 71 69 66 64 63 63 62 62 62 60 59 57 56 56 55 54
40 42 44 46 48 51 55 58 61 63 66 67 70 73 76 78 79 81 84 90 94 94 96 98 98 99 100 100 101 101 102 105 109 114 117 120 123 126 128 131 133 135 136 137 138 139 139 137 134 129 125 122 119 116 111 106 103 99 97 95 93 91 89 83 77 75 74 72 72 70 68 66 64 62 60 59 59 59 58 57 55 54 54 54 53 52
43 46 48 50 53 55 58 61 64 66 68 71 74 76 79 81 83 84 85 90 95 97 98 99 99 100 101 102 103 105 106 108 112 118 122 125 127 130 133 135 136 138 138 139 138 138 136 133 130 126 122 119 116 113 109 105 103 101 100 98 94 90 87 82 76 73 71 69 67 66 64 62 60 59 58 56 55 55 54 53 52 51 52 51 51 50
48 50 53 55 57 59 61 64 67 70 72 75 77 80 82 84 87 88 88 91 95 98 99 99 99 100 102 103 105 108 110 111 114 120 125 128 131 134 136 138 139 140 141 140 138 136 133 130 127 124 120 117 114 111 108 105 104 103 101 99 95 90 86 82 77 72 70 67 64 62 61 59 57 56 55 54 53 52 51 50 50 50 50 50 49 48
52 55 58 59 61 63 65 67 70 72 75 78 81 83 85 88 91 92 93 93 96 99 100 100 101 102 104 106 109 111 114 115 116 121 126 130 133 136 138 139 140 141 140 138 135 131 128 126 124 122 119 115 112 110 109 108 107 105 102 99 95 90 85 81 76 71 68 66 63 61 59 57 55 54 52 51 51 50 49 49 48 48 48 48 47 46
57 59 61 63 65 67 69 72 74 76 78 81 84 87 89 92 94 96 96 95 97 100 102 103 104 106 108 111 114 116 119 120 121 124 128 131 134 137 139 140 140 139 136 133 129 126 124 124 122 120 117 114 112 110 110 109 108 105 102 97 92 87 83 78 73 69 66 64 62 60 58 56 54 52 50 49 49 48 47 47 47 46 46 46 44 43
60 62 64 66 68 71 73 76 79 82 84 86 88 90 93 95 96 97 97 96 97 100 103 106 108 110 113 116 119 122 125 128 129 130 132 134 136 138 139 139 137 134 130 127 125 124 123 123 122 119 116 113 111 110 109 108 107 103 99 95 90 85 82 76 71 68 65 63 61 59 56 54 52 50 48 47 47 46 46 45 45 44 44 43 42 42
62 64 66 69 71 74 77 80 83 86 88 91 92 93 94 95 96 97 98 99 100 102 105 109 113 115 118 122 124 128 130 133 135 136 137 138 138 138 137 134 131 128 126 125 124 124 123 122 121 118 115 113 111 109 108 106 104 100 95 91 87 83 80 75 70 67 66 63 60 58 56 53 51 49 47 46 45 44 44 43 43 42 42 41 40 40
65 67 69 72 75 78 81 84 86 88 91 93 93 93 94 95 96 97 99 103 106 108 110 114 118 121 124 126 129 132 134 136 138 138 139 138 137 135 131 128 125 123 123 123 123 122 121 120 118 116 114 112 110 108 106 103 100 96 92 88 84 81 78 74 69 66 65 63 60 58 55 52 50 47 46 44 43 42 42 41 41 41 40 39 39 39
68 71 73 76 79 82 84 87 88 90 91 92 91 92 93 96 98 100 103 106 110 114 117 120 123 127 129 131 133 135 136 137 138 137 136 134 131 128 125 124 123 122 122 122 121 120 118 116 115 114 113 111 109 107 103 99 96 94 90 86 82 79 76 73 68 64 63 61 59 57 54 51 48 46 44 43 41 41 40 40 40 39 38 37 37 37
72 75 77 80 82 85 87 88 89 89 90 91 92 94 96 100 103 106 109 112 115 119 122 125 128 131 133 134 136 136 137 136 135 132 129 127 125 123 123 123 122 122 121 120 118 117 115 114 113 112 112 110 107 104 100 96 94 92 88 84 81 78 76 73 69 64 62 59 57 55 52 49 46 45 43 42 40 40 39 39 38 38 37 36 36 36
76 78 81 83 85 86 86 85 86 89 91 94 97 100 103 106 110 113 116 119 121 124 127 129 132 134 135 136 136 135 134 132 129 126 124 123 123 123 122 122 122 120 119 117 116 115 113 112 111 110 110 108 105 102 98 94 92 89 86 83 80 77 75 73 70 65 62 60 56 53 51 48 45 43 42 41 40 39 39 38 37 36 35 35 34 34
80 81 82 83 83 84 85 87 89 92 96 99 103 106 109 112 115 118 121 123 126 128 130 132 134 135 135 134 133 131 128 126 123 122 122 123 123 123 122 121 120 118 117 115 113 112 111 110 108 107 106 104 102 99 96 92 89 87 84 81 78 76 74 72 69 64 61 59 56 52 49 46 43 42 41 40 39 39 38 37 35 34 34 33 33 32
79 79 80 81 83 85 88 91 94 97 101 104 107 109 112 115 118 121 124 126 128 130 131 133 134 134 133 131 128 126 124 123 122 122 122 123 122 121 120 119 117 116 114 113 111 110 108 107 105 104 102 100 98 96 93 89 86 85 83 80 77 75 72 70 67 63 59 56 54 51 47 45 42 41 40 39 38 37 36 35 34 34 33 33 32 31
77 78 80 83 87 90 93 95 98 101 105 108 110 113 115 117 120 123 125 127 128 129 130 130 130 129 128 126 124 123 123 123 122 122 122 122 121 119 118 116 114 113 111 110 109 108 106 104 102 101 99 97 95 92 89 86 83 82 81 78 75 73 71 68 65 62 57 53 52 49 46 43 41 40 39 38 37 36 36 35 34 33 33 32 31 31
79 82 85 88 91 94 97 99 101 104 107 110 114 116 118 120 122 124 126 127 127 127 126 124 123 123 123 123 123 122 123 123 122 122 122 121 119 117 115 113 112 110 109 108 107 106 104 102 99 98 96 94 92 89 86 84 82 80 79 77 73 71 69 66 63 60 56 51 49 47 44 42 40 38 37 37 36 35 35 34 33 33 33 32 31 30
84 86 89 92 94 97 100 103 105 107 109 112 116 119 121 123 124 125 125 124 123 121 119 118 117 119 121 122 122 122 122 121 121 120 119 118 116 114 112 110 109 108 107 106 105 103 102 100 98 96 94 92 89 87 84 82 80 78 77 75 72 69 67 64 61 59 56 51 47 45 43 41 39 37 36 35 35 34 34 33 33 33 32 32 31 31
88 90 93 96 98 101 104 107 110 112 114 117 120 122 123 123 123 122 121 119 117 117 116 116 116 117 118 120 121 121 120 119 118 116 115 114 112 111 109 108 107 105 104 103 102 100 99 98 96 95 92 90 87 85 83 81 78 76 74 74 71 68 66 63 60 57 55 51 47 44 42 40 38 37 36 35 34 34 33 33 33 33 32 32 31 31
Wind_Direction
302 304 306 308 307 306 306 306 306 307 308 309 308 307 307 307 306 306 305 305 305 306 306 307 307 307 306 306 307 308 310 312 312 312 314 311 309 312 313 314 315 315 315 314 314 314 314 314 315 316 316 315 315 315 315 315 315 315 315 315 316 316 316 316 317 317 317 316 315 315 314 314 313 312 312 310 309 308 307 306 306 305 304 303 303 303
303 304 306 307 307 306 305 305 305 306 308 308 308 308 307 307 307 307 307 307 307 308 308 308 307 307 307 307 308 309 312 313 311 312 313 310 310 312 313 314 314 313 314 314 314 314 314 315 315 314 314 315 315 316 316 316 316 317 317 317 318 318 318 319 319 319 318 318 317 316 316 315 314 314 313 312 310 309 309 308 308 307 307 306 306 306
303 304 306 307 307 306 305 305 305 305 307 308 308 308 308 308 308 308 309 309 309 309 309 308 307 306 307 308 309 311 313 312 310 312 313 310 310 312 313 313 313 313 313 313 313 313 314 314 313 314 315 316 317 317 318 318 318 319 319 319 319 320 320 320 320 320 319 319 318 317 317 316 315 315 314 313 312 311 310 309 310 309 309 308 308 308
303 304 306 308 308 306 305 304 305 306 308 308 308 308 308 308 309 309 309 309 310 309 308 308 307 306 306 308 311 313 314 310 309 312 313 310 311 312 313 313 313 313 313 313 313 313 314 314 315 316 317 318 318 319 319 319 320 320 320 320 320 320 320 320 320 320 320 319 318 318 317 316 316 315 315 314 313 312 311 311 311 311 310 310 309 308
303 305 306 308 308 305 304 304 305 307 308 309 309 309 309 309 310 310 310 310 310 309 308 308 308 307 306 308 313 315 312 308 309 313 312 311 312 313 313 312 313 314 313 312 312 313 314 316 317 317 318 318 319 319 319 320 320 320 320 320 320 320 319 319 319 319 319 318 318 317 317 317 317 316 315 315 314 313 312 312 312 311 311 310 310 309
305 306 308 308 307 305 304 305 306 308 309 309 309 310 310 310 310 310 310 309 309 309 308 308 308 306 305 310 316 314 309 307 309 313 313 312 313 313 313 313 314 314 312 310 310 312 314 316 317 317 317 318 318 318 319 319 319 319 319 319 319 319 318 318 319 319 318 318 317 317 317 317 317 316 316 315 315 314 314 313 312 312 311 311 310 310
306 308 308 307 306 305 305 307 308 309 309 309 310 310 311 311 311 310 310 309 309 309 308 308 308 305 305 312 316 312 308 309 310 313 313 313 314 313 313 314 313 313 311 309 309 311 313 315 315 316 316 316 317 317 317 317 317 317 318 317 317 317 317 317 318 318 318 317 317 317 317 317 317 316 316 316 315 315 314 313 313 312 311 311 310 310
307 308 307 306 306 306 307 308 309 309 310 310 310 310 310 311 310 310 309 309 310 310 309 309 306 305 308 313 315 311 310 310 310 313 314 314 315 314 314 314 313 312 310 309 309 311 312 313 314 314 314 315 315 316 316 316 316 316 316 316 316 316 316 317 317 317 317 317 317 317 317 317 316 316 316 316 315 315 314 314 312 312 311 310 310 310
307 306 305 306 307 308 308 309 309 309 310 310 310 310 310 310 309 309 309 309 311 310 310 308 304 305 310 312 314 314 313 311 311 312 314 315 315 315 314 314 313 312 311 310 309 310 311 312 313 313 313 314 314 314 315 315 315 315 315 316 316 316 316 316 316 316 316 316 317 316 316 316 316 316 316 315 315 315 314 313 312 311 311 310 310 310
306 305 305 307 308 309 309 310 309 309 309 309 309 309 309 308 308 309 309 310 312 311 310 307 303 306 312 312 315 317 313 312 311 312 314 315 315 315 314 313 313 312 311 310 310 310 311 311 312 313 313 314 314 314 314 315 315 315 316 316 316 316 316 316 316 315 315 316 316 315 315 315 315 315 315 315 315 314 313 313 312 311 310 310 309 309
305 306 307 308 309 310 310 309 309 309 309 308 308 307 307 307 308 310 311 312 313 311 309 305 302 306 311 312 316 317 314 312 311 312 314 315 315 315 314 314 314 313 312 312 312 312 312 313 313 314 314 314 314 315 315 316 316 316 316 317 316 316 316 316 316 315 315 315 315 315 315 315 315 315 314 314 314 313 313 312 311 310 310 309 308 308
306 308 309 310 310 310 309 308 308 308 308 308 307 306 306 307 309 311 312 312 312 309 306 302 300 305 310 312 316 316 314 312 311 311 313 314 315 314 313 314 314 314 314 314 314 314 314 314 314 315 315 314 314 315 316 316 317 317 316 317 316 316 316 316 316 315 315 315 315 315 314 314 314 314 314 313 313 312 312 311 310 309 309 308 308 307
308 309 310 310 310 309 308 308 308 308 308 307 306 306 307 308 311 313 313 311 309 306 302 299 299 304 308 311 314 316 315 314 311 310 311 313 313 313 313 314 315 315 315 315 315 314 314 314 314 314 314 314 314 315 315 316 316 316 316 316 316 315 315 315 315 315 315 314 314 314 313 313 313 313 313 313 312 311 311 310 309 308 308 308 307 307
309 310 310 310 309 308 308 308 308 307 307 307 306 306 307 310 313 314 312 309 306 303 299 299 301 303 306 310 313 315 315 314 311 309 310 311 312 312 312 314 314 314 314 315 314 313 313 313 313 313 313 313 314 314 315 315 316 316 316 316 316 315 315 315 314 314 314 314 314 313 313 313 313 313 313 312 311 310 310 309 308 308 307 307 306 306
310 310 309 309 308 307 307 307 307 306 306 306 306 307 309 312 314 314 312 307 303 302 301 303 303 303 305 308 312 315 315 314 311 310 311 311 311 311 312 314 314 314 314 314 313 312 312 312 313 313 313 313 313 314 314 315 315 316 315 315 315 314 314 314 314 314 314 314 313 313 313 313 313 313 312 311 310 309 308 308 307 306 306 306 305 305
310 310 309 308 307 307 307 307 306 305 306 306 307 308 311 313 314 313 312 306 303 306 306 305 304 303 305 308 313 317 316 314 313 312 312 311 311 312 313 314 313 313 313 312 311 312 312 312 313 313 313 313 313 314 314 315 315 315 315 314 314 314 313 313 314 314 314 314 314 314 313 313 312 311 310 309 308 308 307 306 305 305 305 304 304 304
309 309 309 307 306 306 306 306 305 305 306 307 308 309 312 313 312 311 309 303 304 309 309 307 304 302 303 306 313 318 317 316 315 314 313 312 312 313 313 313 312 312 312 311 312 312 312 312 312 312 312 313 313 314 314 314 314 314 314 314 314 313 313 313 314 314 314 314 314 313 313 312 311 310 309 308 307 306 306 305 304 304 304 303 303 302
309 310 309 307 306 306 305 305 304 304 306 308 309 311 312 312 310 309 306 302 305 309 310 308 304 301 300 304 312 316 315 316 316 315 313 313 313 313 312 312 311 311 312 312 313 313 312 312 312 312 313 313 313 314 314 314 314 314 314 314 314 314 314 314 314 314 314 314 313 312 311 310 309 308 308 307 306 305 305 304 303 303 303 302 302 301
309 309 309 307 306 305 305 304 304 305 307 309 310 312 312 311 308 307 305 304 306 308 309 309 306 300 298 304 311 313 313 315 315 314 313 312 312 311 311 311 311 311 312 312 312 312 312 312 312 313 313 313 313 314 314 314 314 314 314 314 314 314 314 314 314 314 314 313 312 311 310 309 308 308 307 306 305 304 304 303 302 302 302 301 301 300
308 308 308 306 304 304 304 303 304 306 308 309 310 311 311 309 308 307 307 306 307 308 307 310 309 300 297 304 310 310 312 313 313 312 311 310 310 310 310 310 310 311 312 312 312 312 312 313 313 314 314 314 314 314 314 314 314 314 314 313 314 314 314 314 313 313 313 312 311 310 310 309 308 307 306 305 304 303 302 302 301 301 300 300 299 298
308 308 307 305 304 304 303 303 305 307 308 309 309 310 308 307 307 308 308 307 307 307 306 310 312 301 299 306 310 309 311 312 311 311 310 309 310 310 310 311 311 312 312 312 312 313 313 314 314 314 314 314 314 314 314 314 314 314 313 313 313 313 313 313 312 312 312 311 311 310 309 308 307 306 305 304 303 302 301 301 300 300 299 299 298 297
307 307 307 305 304 304 303 304 306 307 307 308 309 308 307 307 307 307 307 306 307 307 306 310 313 304 303 308 309 309 312 311 310 310 310 310 310 310 311 312 312 313 313 313 313 314 314 314 314 314 314 314 314 314 314 314 314 314 314 314 313 313 313 312 312 312 312 311 310 309 308 307 305 304 303 302 301 301 300 300 299 299 298 298 297 295
307 307 306 306 305 304 304 304 306 307 307 308 308 307 307 307 307 308 307 306 307 307 307 310 312 308 307 308 308 310 311 310 309 310 310 310 311 311 313 313 313 314 314 314 314 314 314 314 314 314 314 314 314 314 314 314 314 314 314 314 314 313 313 313 312 312 311 310 309 308 306 305 303 302 302 301 300 299 299 299 298 298 297 297 296 294
307 307 307 306 306 305 304 304 305 307 307 307 307 308 309 308 308 308 307 308 309 308 309 311 312 311 310 308 308 311 311 310 310 311 311 312 312 313 314 313 313 313 313 314 314 314 314 314 314 314 314 314 314 313 314 314 315 315 315 315 314 314 314 313 312 311 309 308 307 306 304 303 302 301 300 300 299 298 298 298 297 296 296 296 294 292
308 307 307 306 304 303 302 303 306 307 307 307 308 309 310 309 308 308 308 308 310 311 312 312 313 314 310 308 310 311 311 311 312 312 312 312 312 313 313 313 313 313 313 313 313 313 313 314 314 314 314 314 314 315 315 315 315 316 316 316 315 314 313 312 310 309 308 307 305 304 303 301 300 300 299 299 298 298 297 297 296 295 295 294 293 291
308 307 306 305 302 299 299 301 303 305 305 307 309 310 310 309 309 309 309 310 311 313 314 312 313 313 310 309 311 312 311 312 312 312 312 312 312 312 312 313 312 312 312 313 313 313 314 314 314 314 315 315 315 315 315 316 316 316 316 316 315 313 312 310 309 308 307 306 304 302 301 300 300 299 299 298 298 297 296 295 295 294 294 293 291 290
308 307 305 304 301 299 300 301 302 303 305 307 309 310 310 309 310 310 310 311 312 314 315 312 312 313 310 309 312 312 311 312 312 312 312 311 311 312 312 312 312 312 313 313 314 314 314 315 315 315 315 315 315 315 315 316 317 316 316 315 314 312 311 310 309 308 306 304 302 301 300 299 299 299 299 298 298 297 296 295 294 293 292 291 290 288
307 305 303 302 299 299 302 304 305 306 308 310 312 312 311 311 312 312 312 313 313 314 314 313 312 312 311 311 313 312 312 313 312 312 311 311 311 311 311 311 312 313 313 314 314 315 315 315 315 315 315 315 315 315 316 317 316 316 315 314 313 312 310 309 308 307 305 303 301 300 299 299 299 299 298 298 297 296 295 294 293 292 291 290 289 287
305 302 301 300 299 300 304 306 307 310 311 313 314 313 312 313 313 313 312 312 313 313 313 313 312 312 312 314 314 313 313 313 312 311 311 310 310 311 311 312 313 313 314 314 314 315 315 315 314 314 314 315 315 316 316 316 316 315 314 313 312 311 310 309 308 307 306 304 302 301 300 299 299 298 298 297 296 295 294 292 292 291 290 289 288 286
303 300 299 300 300 302 306 308 310 312 313 315 315 314 313 313 313 313 312 312 312 312 313 313 313 313 314 315 315 314 312 312 311 310 310 310 311 312 313 313 313 314 314 314 314 314 314 314 314 314 315 315 315 316 316 317 316 315 314 313 312 312 311 311 310 309 307 304 302 301 300 300 298 297 296 296 294 293 292 291 290 289 289 288 287 284
301 299 299 302 303 304 308 311 312 313 314 315 315 313 312 312 313 313 312 311 311 313 314 314 314 314 314 314 313 312 311 311 310 311 311 311 312 313 313 313 313 313 313 313 313 313 313 313 314 314 315 316 316 317 318 318 317 316 315 315 314 314 314 313 311 310 307 304 303 302 301 299 298 297 295 294 293 292 290 290 289 288 288 287 285 283
300 300 301 304 305 306 309 311 312 312 314 314 313 312 311 312 313 313 311 311 312 314 314 314 313 313 312 311 311 311 311 311 311 312 312 312 312 312 313 313 313 313 313 313 313 313 314 314 315 315 316 317 317 318 318 318 318 318 317 317 317 317 316 315 313 311 308 306 304 303 302 300 299 297 295 294 292 291 290 289 288 288 287 285 283 282
302 303 304 306 307 307 309 310 311 311 312 313 312 311 311 312 313 313 312 311 312 314 314 312 312 311 311 311 311 311 311 311 311 311 311 312 312 313 313 313 313 313 313 313 314 314 315 315 316 317 318 318 319 319 319 319 319 319 319 319 320 319 318 316 314 311 309 307 306 305 304 302 300 298 296 294 292 291 289 289 288 288 286 283 282 281
304 305 306 307 308 308 308 310 310 311 312 313 312 311 311 313 313 313 312 311 311 312 312 311 311 311 311 311 311 311 312 311 311 311 311 312 312 312 312 312 312 313 313 314 315 315 316 316 317 318 318 319 319 319 320 320 320 321 321 322 322 322 319 317 315 312 310 308 307 306 305 304 302 299 296 294 292 290 289 289 288 287 284 282 282 281
305 306 306 307 308 308 309 310 310 310 311 312 312 311 312 312 312 312 312 311 310 311 311 311 312 312 311 311 311 312 312 313 312 312 312 312 312 311 311 312 312 313 314 315 316 316 317 317 318 318 319 319 319 320 321 322 322 323 324 324 324 322 320 318 316 314 312 310 308 307 306 304 302 299 296 294 292 290 290 289 288 286 283 282 281 280
306 307 308 308 309 309 310 310 310 310 311 311 311 311 312 312 311 311 311 310 310 310 310 310 311 311 311 311 311 312 313 313 313 312 311 311 311 311 311 312 313 314 315 316 317 317 317 318 318 318 319 319 320 321 322 323 324 325 325 324 324 323 321 320 319 317 314 312 310 308 307 305 303 300 297 295 293 291 290 289 287 285 283 282 281 280
308 309 309 310 310 310 310 310 311 311 311 311 311 311 311 310 310 310 310 309 309 309 309 310 310 310 310 311 311 312 312 312 312 311 310 310 310 311 312 313 314 315 316 317 317 318 317 317 317 318 319 320 321 322 323 324 325 326 325 324 324 324 322 321 320 319 316 314 312 311 309 307 304 301 298 296 293 292 290 289 286 284 283 282 281 281
310 310 310 310 311 311 311 310 310 310 310 310 309 309 310 309 310 310 310 310 310 309 310 310 310 310 310 311 311 311 311 311 310 310 310 310 311 311 312 313 314 315 316 316 317 317 316 316 316 318 319 321 322 324 324 325 325 325 325 324 324 324 323 322 321 320 318 316 315 313 311 308 305 302 299 297 295 293 291 288 286 285 283 282 281 280
310 310 310 311 311 311 310 310 310 309 309 309 309 309 310 310 310 310 311 311 311 310 310 310 311 311 311 310 310 310 310 310 311 311 311 312 312 313 314 315 315 316 316 316 316 316 316 316 318 319 321 322 324 324 324 324 324 324 324 324 324 323 322 322 322 321 319 318 316 315 313 310 307 304 301 298 296 293 291 289 287 285 284 282 281 279
311 310 310 310 310 310 309 309 309 309 309 309 310 310 310 310 310 311 311 311 311 310 310 310 310 310 310 310 310 311 311 312 313 313 314 314 314 315 315 316 316 315 315 315 316 316 317 318 319 321 322 323 324 324 324 324 323 323 323 323 324 323 323 322 322 322 320 319 317 316 314 312 309 306 303 300 297 294 292 290 288 286 284 282 280 277
310 309 309 309 308 308 308 309 309 310 310 310 310 310 310 310 311 311 311 311 310 310 310 310 310 310 310 311 312 312 313 313 314 315 315 315 315 315 315 315 315 315 315 316 317 318 319 320 320 321 322 323 323 323 323 323 322 322 323 323 323 323 323 323 323 323 321 320 319 317 316 313 311 308 305 302 299 296 293 291 289 286 283 281 279 276
308 308 308 307 307 308 308 309 309 310 310 310 310 311 311 311 310 310 310 310 310 310 310 310 311 311 312 312 312 313 314 314 314 315 315 315 315 314 314 315 315 315 316 317 317 318 319 320 320 321 321 321 322 322 322 322 322 322 323 323 324 324 323 323 324 324 322 321 319 318 316 314 312 309 306 303 300 297 294 291 288 285 283 281 278 275
308 308 308 308 309 309 309 309 309 309 309 310 310 310 310 310 310 310 310 311 311 311 312 312 312 312 312 313 313 313 314 314 314 314 314 314 314 314 314 315 316 316 317 317 318 319 319 319 320 319 320 320 320 320 321 322 322 322 323 323 324 325 324 323 324 325 323 320 319 317 316 314 312 310 306 303 300 296 293 290 287 285 283 280 277 275
309 309 309 309 309 309 309 310 310 310 310 310 310 310 311 311 311 311 312 312 312 313 313 313 313 313 313 313 313 313 313 313 313 313 313 313 313 314 315 315 316 317 317 318 318 319 319 319 319 319 318 319 319 320 322 323 323 323 323 324 324 325 324 323 324 325 323 321 319 317 316 315 313 310 307 303 300 296 293 290 288 286 283 280 277 274
310 310 310 310 310 310 310 311 311 311 311 311 312 313 313 313 314 314 314 313 313 313 313 313 313 313 313 312 312 312 312 312 313 313 313 314 314 315 316 316 317 318 318 318 318 318 318 318 318 318 318 318 319 321 323 323 323 322 323 324 325 325 324 323 324 325 324 321 319 318 316 314 313 310 306 303 300 297 295 292 289 286 283 279 276 274
311 311 311 311 311 311 312 313 313 314 314 314 315 315 315 315 314 314 313 313 313 312 312 312 312 312 311 311 311 312 312 313 314 314 315 315 315 316 317 317 317 318 318 318 318 317 317 317 317 317 318 319 320 322 323 323 323 322 323 324 325 324 324 323 323 324 323 320 318 317 315 314 312 309 306 304 301 299 296 293 290 286 282 279 276 273
312 312 313 313 313 314 315 316 316 316 316 315 315 315 314 313 313 312 312 312 312 311 311 311 311 311 311 312 312 313 314 314 315 315 315 315 316 316 317 317 317 317 317 317 317 316 317 317 317 317 318 319 321 322 322 323 323 323 323 324 324 323 323 322 322 322 322 319 317 316 315 313 312 309 307 305 303 300 297 294 290 286 282 279 276 273
314 315 316 316 316 316 317 317 317 316 315 314 313 312 312 311 311 311 310 310 310 310 310 310 311 312 312 313 314 314 315 315 316 316 316 316 316 317 317 317 317 316 316 316 316 316 317 317 318 318 319 320 321 322 322 323 323 323 322 323 323 322 322 321 321 321 320 318 316 315 314 313 311 309 307 305 304 301 298 294 290 286 282 279 276 273
317 318 318 318 318 317 317 316 315 314 313 311 311 310 310 310 310 310 310 310 310 311 311 312 312 313 313 314 314 315 315 315 315 316 316 316 316 316 316 316 316 315 315 315 316 317 317 318 318 319 320 321 321 322 323 323 323 322 321 321 322 321 320 320 319 319 319 319 317 314 313 312 310 309 307 305 304 301 298 294 290 286 283 280 277 273
319 319 318 318 317 315 314 313 312 311 310 309 309 309 310 310 310 310 310 311 311 312 312 313 313 313 314 314 314 314 315 315 315 315 315 315 315 315 315 315 315 315 315 316 317 317 318 319 320 320 321 321 322 323 323 323 322 321 320 320 320 320 319 319 319 319 319 319 317 315 312 311 310 308 307 305 303 301 298 295 291 288 284 281 277 273
319 318 317 315 314 313 312 311 310 310 310 310 310 311 311 311 311 311 312 312 313 313 313 314 313 313 313 313 313 314 315 315 315 315 314 314 315 315 315 315 316 316 316 316 317 318 319 320 320 320 321 322 322 323 322 322 321 320 320 319 319 319 318 318 319 319 319 319 318 315 313 311 310 308 306 304 303 301 298 294 291 288 285 282 278 274
Height
10705 10702 10699 10696 10694 10690 10687 10684 10680 10677 10674 10670 10666 10662 10660 10656 10650 10647 10644 10640 10638 10632 10625 10618 10613 10610 10606 10602 10596 10592 10588 10584 10580 10576 10572 10568 10564 10560 10556 10554 10550 10546 10543 10540 10536 10532 10528 10525 10521 10518 10514 10510 10506 10503 10499 10494 10490 10486 10482 10477 10472 10468 10463 10458 10454 10448 10442 10436 10432 10426 10422 10416 10410 10404 10400 10394 10388 10383 10376 10369 10363 10356 10350 10344 10338 10331
10700 10698 10695 10692 10689 10686 10682 10679 10675 10672 10668 10665 10661 10656 10653 10650 10645 10640 10637 10634 10630 10626 10620 10613 10606 10600 10598 10596 10591 10586 10582 10578 10573 10570 10568 10563 10559 10556 10552 10548 10544 10540 10538 10534 10531 10527 10523 10519 10516 10512 10508 10504 10500 10496 10492 10488 10483 10479 10474 10469 10464 10458 10454 10449 10444 10440 10434 10428 10422 10416 10412 10406 10400 10394 10388 10382 10378 10372 10364 10358 10352 10344 10338 10332 10326 10320
10696 10693 10690 10687 10684 10680 10677 10674 10670 10666 10662 10659 10655 10651 10647 10644 10640 10634 10630 10626 10624 10620 10615 10608 10600 10592 10590 10588 10584 10580 10576 10571 10567 10564 10562 10558 10554 10550 10546 10542 10538 10534 10531 10528 10525 10522 10518 10514 10510 10506 10502 10498 10493 10489 10484 10480 10474 10470 10465 10460 10454 10450 10444 10440 10435 10430 10424 10418 10412 10406 10400 10394 10388 10382 10376 10370 10365 10360 10353 10347 10340 10333 10326 10320 10313 10308
10691 10688 10685 10682 10678 10674 10671 10668 10664 10660 10656 10653 10649 10645 10641 10637 10634 10630 10624 10619 10614 10612 10609 10604 10596 10586 10582 10580 10577 10574 10570 10564 10562 10560 10556 10552 10548 10546 10542 10537 10533 10529 10524 10521 10518 10515 10512 10508 10503 10498 10494 10490 10486 10481 10476 10471 10466 10461 10456 10450 10446 10440 10435 10430 10425 10420 10414 10408 10402 10396 10389 10383 10377 10370 10364 10358 10352 10346 10340 10334 10328 10322 10314 10308 10301 10296
10686 10682 10679 10676 10672 10668 10665 10661 10658 10654 10649 10646 10643 10639 10635 10630 10627 10624 10620 10614 10608 10604 10600 10597 10592 10582 10574 10574 10572 10568 10563 10559 10556 10555 10552 10548 10544 10540 10536 10532 10528 10524 10520 10515 10511 10508 10504 10500 10496 10491 10487 10482 10478 10472 10468 10462 10458 10452 10446 10441 10436 10430 10425 10420 10416 10410 10405 10398 10392 10386 10378 10372 10366 10358 10352 10346 10341 10334 10328 10322 10316 10310 10304 10296 10289 10283
10680 10676 10672 10669 10666 10662 10658 10655 10652 10648 10644 10640 10636 10632 10628 10624 10620 10616 10612 10608 10603 10598 10592 10588 10586 10578 10568 10566 10568 10562 10558 10554 10552 10550 10546 10542 10539 10534 10530 10526 10522 10519 10514 10510 10506 10502 10498 10494 10490 10484 10480 10476 10470 10465 10460 10455 10450 10444 10438 10432 10427 10421 10416 10410 10406 10400 10395 10388 10382 10375 10368 10360 10354 10347 10340 10334 10328 10322 10316 10310 10304 10298 10292 10286 10278 10270
10674 10670 10666 10663 10660 10656 10652 10649 10646 10642 10638 10634 10630 10626 10622 10618 10614 10610 10605 10601 10597 10592 10586 10580 10576 10572 10564 10560 10561 10558 10553 10550 10546 10544 10541 10537 10534 10530 10525 10521 10518 10514 10510 10506 10501 10496 10492 10488 10484 10478 10473 10468 10464 10459 10454 10448 10442 10437 10431 10425 10419 10413 10406 10400 10395 10389 10384 10378 10370 10363 10356 10349 10342 10335 10328 10322 10315 10309 10304 10297 10291 10286 10280 10274 10267 10260
10668 10664 10660 10657 10654 10650 10646 10643 10639 10636 10632 10628 10624 10620 10616 10612 10608 10604 10598 10594 10590 10586 10580 10574 10567 10564 10560 10555 10555 10552 10548 10545 10540 10538 10535 10532 10528 10524 10520 10516 10512 10508 10504 10500 10496 10490 10486 10482 10478 10473 10468 10462 10458 10454 10448 10442 10436 10430 10424 10418 10412 10404 10398 10391 10384 10378 10371 10365 10359 10352 10344 10338 10330 10322 10316 10310 10303 10296 10290 10284 10278 10273 10268 10262 10256 10248
10663 10659 10655 10652 10648 10644 10640 10637 10633 10630 10626 10622 10618 10614 10610 10606 10602 10598 10592 10588 10584 10579 10574 10567 10559 10558 10555 10550 10550 10548 10542 10539 10534 10531 10528 10525 10522 10518 10514 10510 10506 10502 10499 10495 10490 10485 10480 10476 10471 10466 10461 10456 10450 10446 10442 10436 10430 10424 10418 10411 10404 10396 10388 10382 10374 10367 10360 10352 10346 10340 10332 10326 10318 10312 10304 10297 10290 10284 10278 10272 10266 10260 10254 10248 10243 10236
10658 10654 10650 10646 10642 10638 10634 10631 10627 10624 10620 10616 10612 10608 10604 10600 10596 10592 10587 10582 10579 10572 10567 10560 10552 10550 10551 10546 10545 10542 10538 10532 10528 10524 10522 10518 10516 10512 10508 10504 10500 10496 10492 10488 10484 10478 10474 10469 10464 10459 10453 10448 10442 10438 10433 10428 10422 10416 10408 10402 10394 10386 10378 10372 10364 10357 10349 10342 10335 10328 10321 10314 10306 10300 10292 10285 10278 10272 10266 10260 10253 10246 10240 10234 10230 10224
10652 10648 10644 10640 10636 10632 10628 10625 10621 10617 10614 10610 10606 10602 10598 10594 10590 10587 10582 10576 10574 10568 10560 10552 10544 10543 10546 10544 10541 10538 10534 10528 10522 10518 10515 10512 10508 10504 10500 10496 10493 10490 10486 10481 10476 10470 10465 10460 10454 10449 10443 10438 10432 10426 10422 10417 10411 10404 10397 10390 10382 10374 10366 10361 10354 10346 10338 10330 10324 10316 10310 10302 10294 10288 10280 10273 10266 10259 10253 10247 10240 10234 10226 10220 10215 10210
10647 10643 10638 10634 10630 10626 10622 10618 10614 10610 10606 10602 10598 10595 10592 10590 10586 10582 10578 10572 10568 10562 10554 10546 10538 10536 10538 10538 10538 10536 10531 10526 10520 10514 10509 10506 10503 10498 10493 10489 10485 10482 10478 10473 10468 10462 10456 10450 10444 10438 10432 10427 10421 10415 10410 10404 10399 10392 10385 10378 10372 10362 10354 10348 10342 10334 10326 10318 10311 10304 10297 10290 10282 10275 10267 10260 10254 10246 10240 10234 10227 10221 10214 10208 10201 10196
10642 10636 10632 10628 10624 10620 10616 10612 10608 10604 10600 10596 10591 10587 10584 10583 10582 10578 10573 10568 10562 10556 10549 10541 10534 10530 10530 10532 10532 10530 10526 10522 10516 10510 10504 10501 10498 10493 10488 10483 10478 10474 10470 10465 10460 10454 10448 10442 10436 10430 10424 10418 10412 10405 10398 10392 10386 10380 10372 10366 10359 10350 10342 10336 10330 10322 10314 10306 10298 10292 10284 10277 10270 10262 10254 10246 10240 10233 10227 10220 10214 10207 10200 10194 10188 10182
10638 10632 10626 10622 10618 10612 10608 10604 10601 10597 10594 10589 10584 10580 10576 10574 10574 10573 10568 10562 10558 10552 10545 10537 10530 10524 10524 10524 10525 10523 10520 10517 10512 10505 10500 10496 10491 10486 10481 10477 10472 10467 10462 10457 10452 10446 10440 10434 10428 10422 10416 10408 10402 10394 10388 10381 10374 10368 10360 10352 10346 10338 10329 10323 10316 10310 10302 10294 10286 10278 10270 10262 10256 10248 10240 10233 10226 10219 10212 10206 10200 10192 10186 10181 10175 10168
10634 10627 10621 10616 10612 10606 10602 10598 10594 10590 10588 10584 10578 10574 10570 10567 10565 10564 10562 10556 10553 10548 10542 10534 10524 10517 10516 10517 10520 10518 10514 10512 10506 10500 10494 10489 10484 10480 10474 10470 10465 10460 10454 10449 10444 10438 10431 10426 10419 10412 10405 10398 10390 10384 10376 10369 10362 10355 10348 10340 10332 10325 10316 10308 10302 10296 10288 10280 10272 10264 10256 10247 10240 10234 10226 10220 10212 10204 10198 10192 10185 10179 10174 10168 10162 10156
10628 10622 10616 10610 10605 10600 10596 10592 10586 10583 10581 10578 10574 10569 10566 10562 10558 10556 10554 10550 10548 10546 10540 10532 10520 10510 10504 10506 10510 10512 10508 10504 10499 10493 10488 10482 10476 10472 10467 10462 10456 10450 10446 10440 10435 10429 10422 10416 10408 10401 10394 10386 10379 10372 10364 10356 10349 10342 10335 10328 10320 10312 10303 10294 10287 10280 10274 10266 10257 10248 10240 10232 10224 10218 10212 10205 10198 10190 10183 10176 10170 10165 10160 10154 10149 10144
10622 10618 10612 10605 10600 10594 10590 10586 10580 10576 10574 10572 10569 10564 10562 10558 10553 10550 10549 10545 10543 10542 10537 10530 10518 10506 10497 10495 10499 10502 10500 10495 10490 10486 10480 10473 10468 10464 10458 10453 10448 10442 10437 10432 10425 10419 10412 10406 10398 10391 10383 10376 10368 10361 10353 10344 10336 10328 10320 10314 10306 10298 10289 10280 10272 10266 10258 10250 10242 10233 10224 10216 10210 10202 10196 10189 10182 10175 10168 10162 10155 10150 10146 10140 10136 10132
10616 10612 10606 10598 10593 10588 10584 10580 10575 10570 10568 10566 10562 10559 10556 10553 10548 10546 10544 10541 10538 10538 10534 10528 10518 10504 10493 10490 10493 10493 10490 10487 10483 10478 10472 10465 10460 10455 10450 10443 10438 10432 10427 10422 10415 10408 10402 10396 10389 10382 10373 10364 10356 10348 10342 10333 10324 10314 10306 10298 10291 10283 10274 10266 10257 10250 10242 10234 10226 10218 10209 10202 10194 10186 10180 10172 10166 10160 10154 10147 10141 10136 10132 10126 10122 10118
10608 10606 10600 10592 10586 10582 10578 10574 10570 10566 10562 10560 10556 10553 10550 10548 10545 10542 10538 10536 10534 10533 10531 10527 10518 10502 10488 10488 10490 10488 10484 10482 10476 10471 10464 10458 10452 10446 10442 10435 10428 10423 10418 10413 10406 10400 10392 10386 10378 10371 10362 10354 10344 10336 10329 10321 10312 10303 10293 10283 10274 10266 10257 10248 10240 10232 10225 10217 10209 10202 10193 10184 10178 10170 10162 10156 10150 10145 10138 10132 10127 10122 10118 10113 10109 10106
10602 10599 10596 10587 10580 10576 10572 10567 10564 10562 10558 10554 10550 10547 10544 10542 10540 10538 10534 10530 10528 10527 10524 10524 10520 10502 10486 10486 10488 10482 10480 10476 10471 10466 10458 10451 10446 10440 10434 10428 10422 10416 10410 10405 10398 10391 10383 10376 10367 10359 10350 10342 10332 10324 10316 10308 10300 10292 10282 10271 10261 10251 10241 10231 10222 10214 10207 10200 10191 10183 10174 10166 10160 10152 10145 10139 10134 10128 10123 10117 10112 10108 10104 10100 10096 10094
10596 10592 10588 10582 10574 10570 10566 10561 10559 10556 10552 10550 10546 10542 10540 10538 10536 10533 10529 10524 10520 10520 10517 10518 10518 10500 10482 10483 10483 10477 10474 10470 10463 10459 10452 10444 10438 10432 10426 10418 10412 10408 10402 10395 10388 10380 10372 10364 10355 10346 10337 10328 10319 10310 10302 10294 10286 10278 10269 10259 10249 10238 10228 10218 10208 10198 10190 10181 10173 10164 10156 10149 10142 10135 10128 10123 10118 10112 10108 10102 10098 10094 10090 10086 10084 10080
10590 10586 10582 10576 10570 10564 10560 10556 10554 10551 10547 10544 10541 10538 10536 10533 10530 10528 10526 10520 10515 10512 10508 10510 10512 10498 10482 10478 10476 10470 10468 10462 10454 10450 10444 10436 10428 10423 10418 10409 10401 10396 10389 10382 10374 10366 10358 10350 10342 10334 10325 10316 10306 10297 10288 10280 10272 10264 10254 10246 10236 10226 10215 10204 10194 10183 10172 10162 10154 10146 10139 10132 10125 10118 10113 10108 10102 10097 10092 10088 10084 10080 10076 10074 10070 10068
10583 10580 10576 10570 10564 10558 10554 10550 10548 10546 10542 10538 10536 10534 10532 10528 10524 10522 10520 10516 10512 10508 10502 10502 10503 10494 10481 10473 10468 10465 10461 10454 10446 10440 10436 10429 10420 10412 10406 10399 10391 10383 10375 10368 10360 10351 10344 10336 10328 10321 10312 10304 10294 10284 10275 10266 10258 10248 10240 10230 10222 10212 10200 10188 10177 10166 10156 10146 10137 10128 10121 10114 10109 10104 10098 10092 10086 10082 10077 10073 10070 10066 10063 10060 10057 10054
10576 10573 10570 10566 10560 10552 10547 10544 10542 10540 10536 10534 10531 10529 10526 10522 10518 10515 10512 10510 10508 10502 10496 10494 10494 10488 10478 10466 10461 10458 10452 10444 10436 10430 10423 10418 10410 10402 10394 10387 10380 10373 10364 10356 10348 10339 10332 10324 10316 10308 10299 10290 10282 10271 10262 10252 10243 10234 10224 10214 10203 10194 10184 10173 10162 10152 10141 10131 10122 10112 10104 10096 10092 10088 10083 10077 10072 10067 10062 10059 10056 10052 10050 10047 10044 10040
10570 10566 10562 10560 10556 10550 10543 10539 10537 10534 10530 10528 10526 10524 10520 10516 10512 10509 10505 10502 10500 10497 10490 10484 10484 10480 10468 10458 10454 10449 10442 10434 10426 10418 10410 10404 10398 10392 10386 10378 10370 10362 10355 10348 10338 10330 10321 10312 10302 10294 10285 10276 10265 10254 10244 10235 10228 10219 10208 10196 10184 10174 10166 10158 10148 10138 10128 10116 10107 10098 10088 10079 10074 10072 10068 10062 10058 10052 10048 10045 10042 10038 10036 10034 10030 10028
10566 10560 10556 10554 10550 10546 10542 10538 10535 10531 10526 10524 10522 10519 10516 10512 10507 10503 10499 10496 10493 10492 10486 10474 10474 10474 10460 10448 10445 10439 10430 10426 10418 10410 10402 10394 10387 10381 10375 10368 10360 10352 10344 10336 10328 10319 10310 10300 10290 10280 10270 10258 10248 10238 10228 10219 10210 10202 10194 10182 10170 10158 10148 10139 10132 10124 10114 10102 10092 10082 10072 10064 10058 10055 10052 10048 10043 10038 10034 10030 10028 10024 10022 10020 10017 10015
10560 10554 10550 10546 10542 10538 10538 10536 10533 10530 10525 10522 10518 10515 10511 10506 10502 10496 10492 10488 10484 10484 10481 10468 10460 10462 10454 10442 10436 10430 10422 10418 10410 10402 10394 10386 10378 10371 10364 10357 10349 10340 10331 10322 10314 10304 10295 10286 10276 10265 10254 10244 10235 10226 10216 10206 10196 10184 10175 10166 10155 10144 10132 10122 10115 10108 10098 10087 10076 10067 10058 10050 10042 10038 10036 10033 10029 10024 10020 10016 10014 10011 10008 10006 10004 10002
10556 10550 10544 10540 10536 10533 10532 10530 10528 10526 10522 10518 10515 10510 10506 10500 10496 10490 10483 10479 10474 10472 10473 10464 10452 10447 10443 10437 10430 10419 10412 10407 10400 10392 10384 10376 10369 10362 10354 10346 10338 10328 10318 10306 10296 10286 10277 10268 10258 10248 10240 10230 10220 10211 10202 10195 10184 10172 10159 10148 10136 10126 10116 10106 10100 10092 10082 10070 10059 10050 10044 10036 10029 10023 10020 10018 10014 10010 10006 10003 10000 9998 9996 9993 9991 9989
10551 10545 10540 10536 10530 10528 10528 10526 10522 10520 10518 10514 10510 10505 10500 10494 10488 10482 10474 10469 10465 10460 10460 10457 10448 10436 10430 10426 10420 10408 10398 10393 10387 10380 10372 10364 10358 10351 10342 10333 10324 10314 10304 10293 10284 10272 10262 10254 10244 10234 10224 10214 10204 10196 10188 10182 10173 10160 10148 10135 10122 10111 10100 10090 10083 10076 10066 10054 10042 10034 10028 10022 10016 10010 10004 10002 9999 9996 9992 9989 9986 9984 9982 9980 9978 9976
10546 10541 10538 10534 10526 10522 10523 10521 10518 10514 10512 10508 10504 10498 10492 10486 10480 10474 10467 10460 10456 10452 10448 10444 10439 10430 10419 10413 10408 10398 10387 10380 10374 10368 10360 10350 10342 10336 10328 10318 10308 10300 10290 10280 10270 10261 10250 10240 10230 10218 10208 10198 10188 10180 10172 10164 10156 10144 10134 10121 10108 10098 10086 10075 10066 10058 10050 10039 10028 10020 10014 10009 10002 9996 9991 9988 9984 9982 9978 9975 9973 9972 9969 9968 9966 9964
10542 10538 10534 10532 10525 10518 10517 10516 10512 10509 10506 10502 10498 10491 10484 10480 10474 10466 10459 10452 10447 10444 10438 10430 10425 10421 10412 10404 10398 10387 10376 10366 10359 10354 10347 10338 10328 10320 10313 10305 10296 10288 10278 10268 10260 10250 10239 10228 10216 10205 10194 10182 10170 10161 10152 10144 10136 10126 10114 10103 10092 10081 10070 10060 10050 10041 10033 10024 10015 10008 10002 9996 9989 9983 9978 9974 9971 9968 9965 9962 9960 9958 9957 9955 9953 9951
10538 10536 10532 10530 10524 10516 10512 10510 10506 10502 10500 10496 10490 10484 10478 10472 10467 10459 10450 10441 10436 10436 10432 10422 10414 10410 10405 10398 10392 10382 10368 10354 10342 10334 10328 10322 10314 10306 10298 10289 10281 10272 10264 10254 10245 10234 10224 10212 10201 10190 10178 10166 10155 10144 10135 10126 10116 10106 10096 10085 10075 10064 10054 10044 10034 10025 10016 10008 10000 9994 9988 9982 9976 9970 9965 9962 9958 9955 9952 9950 9948 9946 9946 9944 9941 9939
10534 10532 10529 10526 10522 10515 10509 10506 10500 10496 10494 10490 10484 10476 10470 10466 10460 10452 10441 10429 10423 10422 10420 10413 10406 10400 10393 10386 10381 10375 10364 10350 10334 10324 10315 10308 10301 10294 10284 10273 10264 10256 10248 10238 10227 10216 10203 10190 10179 10168 10157 10146 10136 10126 10118 10108 10098 10089 10078 10068 10060 10049 10038 10030 10021 10012 10002 9994 9986 9980 9974 9968 9964 9958 9953 9950 9946 9942 9940 9938 9936 9935 9934 9932 9930 9928
10531 10528 10526 10522 10520 10514 10506 10502 10496 10489 10486 10482 10476 10468 10462 10459 10454 10447 10436 10422 10414 10412 10406 10399 10394 10386 10378 10371 10365 10360 10354 10344 10328 10314 10304 10295 10286 10278 10270 10261 10252 10242 10233 10223 10212 10198 10184 10171 10159 10148 10138 10128 10117 10108 10100 10090 10080 10071 10061 10050 10042 10034 10024 10016 10008 9998 9990 9981 9974 9968 9962 9956 9951 9946 9942 9938 9935 9931 9928 9926 9926 9924 9922 9920 9918 9918
10528 10524 10522 10518 10514 10510 10503 10497 10491 10485 10480 10475 10470 10462 10455 10450 10446 10441 10432 10415 10404 10401 10394 10384 10378 10372 10364 10358 10350 10344 10340 10330 10316 10300 10289 10282 10272 10262 10254 10247 10238 10229 10218 10207 10196 10182 10168 10154 10141 10131 10122 10113 10102 10092 10082 10073 10062 10053 10044 10033 10025 10018 10008 10000 9994 9986 9977 9970 9962 9956 9950 9944 9939 9934 9930 9928 9924 9920 9918 9916 9915 9913 9910 9908 9908 9907
10524 10520 10516 10512 10508 10503 10498 10492 10485 10480 10474 10468 10462 10454 10448 10441 10434 10432 10426 10411 10396 10390 10384 10376 10370 10361 10353 10346 10338 10331 10326 10320 10306 10286 10272 10266 10258 10248 10238 10229 10220 10210 10200 10188 10177 10163 10149 10136 10124 10116 10108 10100 10088 10076 10067 10058 10046 10037 10028 10018 10010 10002 9993 9984 9978 9972 9964 9958 9951 9945 9939 9934 9928 9922 9919 9916 9913 9910 9908 9906 9904 9902 9900 9898 9898 9897
10518 10514 10509 10505 10501 10496 10492 10486 10478 10472 10466 10459 10452 10446 10440 10434 10425 10421 10420 10409 10394 10383 10376 10369 10362 10354 10344 10336 10328 10320 10314 10310 10301 10282 10265 10254 10243 10231 10222 10210 10198 10188 10178 10168 10157 10145 10132 10121 10112 10104 10096 10087 10076 10064 10052 10042 10032 10024 10015 10006 9997 9989 9980 9972 9965 9958 9952 9946 9940 9934 9928 9922 9917 9912 9909 9906 9903 9900 9898 9896 9894 9892 9890 9888 9888 9888
10512 10508 10502 10498 10493 10488 10482 10478 10472 10466 10460 10452 10444 10438 10430 10424 10416 10408 10404 10398 10385 10373 10364 10357 10350 10343 10334 10326 10318 10310 10303 10301 10298 10282 10263 10248 10233 10218 10207 10197 10184 10170 10159 10149 10141 10134 10123 10112 10102 10092 10081 10071 10060 10048 10036 10026 10018 10010 10003 9994 9986 9978 9969 9961 9954 9948 9940 9934 9928 9922 9917 9912 9906 9902 9900 9896 9894 9891 9888 9886 9884 9882 9881 9880 9879 9878
10506 10500 10495 10490 10484 10478 10473 10468 10461 10456 10452 10444 10436 10429 10421 10412 10404 10396 10391 10384 10373 10360 10350 10344 10336 10328 10320 10312 10305 10298 10288 10283 10282 10274 10256 10240 10224 10206 10192 10182 10170 10157 10146 10136 10128 10120 10110 10098 10086 10076 10064 10054 10044 10034 10024 10016 10007 9999 9991 9983 9975 9967 9959 9952 9944 9938 9932 9925 9918 9913 9908 9902 9898 9894 9890 9887 9884 9882 9879 9876 9875 9874 9872 9871 9870 9870
10500 10494 10488 10482 10476 10470 10464 10458 10451 10444 10439 10432 10426 10419 10410 10401 10392 10384 10378 10373 10366 10353 10339 10329 10323 10316 10308 10299 10290 10281 10268 10256 10250 10246 10236 10221 10207 10191 10176 10164 10154 10144 10134 10125 10116 10106 10094 10080 10068 10058 10048 10038 10031 10024 10014 10006 9997 9988 9980 9972 9964 9956 9948 9942 9936 9929 9922 9916 9910 9904 9900 9894 9889 9885 9882 9878 9876 9873 9870 9868 9867 9866 9864 9863 9862 9862
10494 10488 10482 10476 10470 10464 10457 10451 10444 10436 10428 10420 10414 10408 10400 10391 10382 10374 10364 10356 10352 10346 10335 10321 10311 10304 10295 10284 10272 10261 10250 10236 10224 10216 10207 10194 10183 10173 10162 10152 10142 10131 10119 10108 10096 10086 10076 10064 10051 10041 10032 10024 10018 10012 10004 9996 9988 9979 9970 9962 9954 9946 9938 9932 9926 9920 9912 9906 9900 9895 9890 9886 9880 9877 9874 9870 9868 9864 9862 9860 9859 9857 9856 9855 9854 9854
10488 10483 10477 10470 10464 10456 10450 10442 10436 10428 10418 10410 10403 10396 10388 10380 10373 10366 10358 10345 10334 10330 10324 10312 10298 10286 10278 10268 10255 10242 10232 10220 10207 10196 10187 10175 10164 10156 10148 10140 10130 10120 10109 10096 10084 10072 10062 10052 10041 10031 10022 10016 10008 10002 9996 9988 9978 9968 9960 9952 9944 9936 9928 9922 9916 9911 9904 9898 9892 9886 9882 9877 9872 9869 9866 9862 9860 9857 9854 9852 9850 9849 9848 9848 9847 9846
10482 10476 10470 10463 10456 10448 10440 10434 10426 10419 10410 10402 10396 10388 10379 10370 10362 10354 10348 10338 10324 10312 10303 10293 10280 10266 10256 10248 10239 10227 10216 10206 10194 10184 10174 10164 10153 10144 10134 10124 10114 10106 10095 10084 10072 10061 10051 10042 10032 10022 10013 10006 9999 9992 9986 9978 9968 9957 9950 9942 9934 9926 9918 9912 9908 9903 9896 9890 9884 9879 9874 9870 9866 9862 9858 9855 9852 9850 9847 9845 9844 9842 9842 9840 9840 9839
10476 10468 10461 10454 10448 10440 10432 10424 10416 10407 10399 10390 10384 10378 10370 10358 10349 10340 10330 10322 10311 10297 10284 10274 10262 10250 10238 10228 10220 10210 10201 10192 10184 10174 10164 10154 10143 10132 10122 10111 10100 10090 10080 10070 10060 10050 10040 10032 10024 10013 10002 9994 9987 9980 9974 9965 9956 9946 9938 9932 9925 9918 9910 9903 9898 9894 9889 9883 9878 9872 9867 9862 9858 9854 9851 9848 9845 9842 9840 9838 9836 9836 9834 9834 9833 9832
10466 10460 10453 10444 10437 10429 10422 10416 10407 10398 10388 10378 10369 10362 10354 10342 10330 10320 10308 10298 10290 10280 10270 10258 10247 10236 10226 10216 10207 10198 10190 10181 10172 10162 10150 10138 10128 10117 10107 10096 10084 10074 10066 10056 10046 10037 10028 10020 10012 10002 9992 9982 9974 9967 9960 9952 9944 9936 9929 9922 9915 9909 9902 9894 9890 9886 9880 9874 9870 9866 9860 9856 9852 9848 9844 9841 9838 9836 9834 9832 9830 9829 9828 9827 9826 9826
10456 10450 10444 10436 10427 10418 10410 10403 10394 10385 10375 10364 10354 10344 10334 10324 10314 10304 10294 10282 10272 10262 10252 10240 10230 10222 10213 10204 10196 10188 10176 10166 10158 10147 10134 10121 10112 10102 10091 10081 10071 10061 10052 10044 10036 10028 10019 10010 10002 9992 9982 9972 9962 9954 9948 9941 9933 9926 9919 9913 9906 9900 9894 9887 9882 9878 9874 9868 9863 9858 9854 9849 9845 9842 9838 9834 9832 9829 9828 9826 9824 9822 9821 9820 9820 9820
10449 10442 10434 10424 10416 10408 10400 10390 10382 10372 10361 10352 10344 10334 10323 10314 10303 10291 10280 10272 10262 10250 10239 10228 10218 10208 10197 10186 10178 10170 10159 10148 10139 10130 10118 10106 10096 10088 10078 10068 10060 10050 10040 10031 10024 10017 10009 10000 9992 9982 9973 9964 9954 9946 9938 9932 9924 9916 9909 9904 9898 9892 9886 9880 9874 9872 9868 9862 9856 9852 9847 9842 9838 9835 9832 9828 9826 9824 9821 9819 9818 9816 9814 9814 9813 9813
10440 10432 10424 10416 10405 10396 10390 10382 10372 10362 10349 10338 10330 10322 10314 10305 10296 10284 10272 10262 10254 10242 10230 10216 10202 10190 10180 10170 10160 10150 10142 10132 10122 10114 10104 10092 10082 10074 10066 10056 10048 10039 10030 10020 10012 10004 9996 9988 9980 9971 9962 9954 9946 9938 9930 9922 9915 9908 9900 9896 9890 9884 9879 9873 9868 9864 9861 9856 9850 9845 9840 9836 9832 9828 9826 9822 9820 9818 9816 9813 9811 9810 9808 9808 9807 9806
10430 10422 10414 10406 10397 10386 10378 10371 10364 10355 10344 10330 10319 10311 10303 10295 10286 10274 10262 10251 10240 10228 10216 10204 10190 10174 10162 10154 10146 10136 10126 10118 10108 10098 10088 10078 10068 10060 10053 10044 10034 10026 10018 10008 10000 9991 9983 9976 9968 9959 9950 9943 9936 9928 9920 9912 9906 9898 9892 9888 9883 9877 9872 9866 9861 9856 9854 9850 9844 9839 9834 9830 9826 9822 9820 9816 9814 9812 9810 9808 9806 9804 9802 9802 9800 9800
10420 10412 10404 10396 10388 10378 10369 10361 10354 10347 10338 10326 10314 10302 10292 10282 10270 10258 10246 10234 10222 10212 10202 10192 10180 10166 10150 10138 10130 10124 10115 10106 10096 10086 10074 10064 10055 10048 10041 10034 10024 10014 10005 9996 9988 9979 9970 9961 9954 9946 9938 9932 9924 9916 9910 9903 9896 9890 9883 9878 9874 9869 9864 9860 9854 9849 9845 9842 9838 9832 9828 9824 9820 9816 9814 9811 9808 9806 9804 9802 9800 9798 9796 9796 9794 9794
10410 10403 10394 10386 10378 10368 10359 10350 10340 10330 10322 10311 10298 10286 10276 10264 10252 10240 10229 10218 10206 10195 10184 10175 10166 10157 10145 10132 10120 10112 10104 10094 10084 10074 10064 10052 10043 10035 10027 10019 10011 10002 9994 9984 9976 9968 9960 9950 9942 9933 9926 9919 9912 9906 9899 9894 9888 9882 9874 9868 9864 9860 9854 9850 9846 9842 9836 9833 9830 9826 9821 9817 9814 9810 9808 9805 9802 9800 9798 9796 9794 9792 9791 9790 9788 9787